www.pogodaiklimat.ru

Погода и климат >> Архив погоды >> Россия >> Мурманская область >> Вайда-Губа


АРХИВ ПОГОДЫ в Вайда-Губе

Время (UTC), дата Ветер
(напр.,м/с)
 
Видим.   Явления Облачность Т
(С)
Тd
(С)
f
(%)
Тe
(С)
Тes
(С)
Комфортность P
(гПа)
Po
(гПа)
Тmin
(С)
Tmax
(С)
R
(мм)
R24
(мм)
S
(см)
00 18.03 С 5-7
{10}
50 км 10/10 300 м
[Sc]
-2.0 -8.7 60 -8 -8 1008.7 1007.7
03 18.03 СВ 5-7
{10}
50 км 10/8 300 м
[Sc Ac und]
-1.7 -8.8 58 -8 -8 1009.6 1008.7 -2.0
06 18.03 СВ 6-8
{10}
50 км 10/10 300 м
[Sc]
-1.5 -8.3 60 -8 -8 1009.7 1008.7 -2.0 8
09 18.03 В 9-11
{11}
50 км 9/9 300 м
[Sc Ac trans]
-0.8 -7.0 63 -8 -8 1009.8 1008.9
12 18.03 В 11-14
{14}
50 км 9/5 300 м
[Sc Ac lent Ci]
-0.6 -5.4 70 -9 -9 1008.7 1007.7
15 18.03 В 12-15
{15}
50 км 10/4 300 м
[Sc As op]
-0.2 -4.3 74 -9 -9 1007.0 1006.0
18 18.03 В 13-17
{17}
4000 м слаб. снег {метель} 10/10 200 м
[Frnb Ns]
-1.0 -2.1 92 -11 -11 1005.4 1004.4 -0.2 0.2
21 18.03 СВ 12-15
{17}
4000 м слаб. снег {метель} 10/10 200 м
[Frnb Ns]
-0.6 -1.4 94 -10 -10 1004.1 1003.2
00 19.03 СВ 12-15
{16}
4000 м слаб. снег {метель} 10/10 200 м
[Frnb Ns]
-0.8 -1.4 96 -10 -10 1003.7 1002.7
03 19.03 С 12-14
{16}
4000 м слаб. снег {метель} 10/10 300 м
[Frnb Ns]
-0.6 -1.7 92 -10 -10 1004.4 1003.4 -1.1 1
06 19.03 С 12-14
{15}
20 км позёмок {ливн. осадки, снег} 9/8 300 м
[Cb cap Ac trans]
-0.1 -1.7 89 -9 -9 1005.3 1004.3 -1.0 1 11
09 19.03 С 11-13
{15}
20 км в посл. час ливневой снег {метель} 9/9 300 м
[Cb cap]
+0.1 -2.6 82 -8 -8 1006.8 1005.9
12 19.03 С 9-11
{13}
20 км {ливн. осадки, метель} 9/9 300 м
[Sc]
+0.7 -5.2 65 -7 -7 1008.2 1007.2
15 19.03 СЗ 10-12
{13}
20 км в посл. час крупа 9/9 300 м
[Cb cap]
+0.1 -4.4 72 -8 -8 1009.5 1008.5 0.4
18 19.03 СЗ 6-10
{12}
4000 м слаб. ливневой снег 10/10 300 м
[Cb cap]
-0.5 -5.7 68 -7 -7 1009.9 1008.9 +0.7 0.0
21 19.03 СЗ 6-7
{10}
50 км {ливн. осадки} 9/9 300 м
[Cb cap]
-0.2 -5.6 67 -7 -7 1009.6 1008.7
00 20.03 З 7 50 км {ливн. осадки} 9/8 300 м
[Cb cap Ac trans]
-1.3 -5.5 73 -9 -9 1009.0 1008.0
03 20.03 ЮЗ 6 50 км 4/3 300 м
[Sc Ac lent]
-3.9 -6.7 81 -11 -11 1008.0 1007.0 -3.9 0.0
06 20.03 ЮЗ 6 50 км 1/1 300 м
[Sc]
-4.0 -7.8 75 -11 -11 1006.4 1005.5 -5.1 0.0 10
09 20.03 Ю 5 50 км 1/1 300 м
[Sc]
-2.9 -6.9 74 -9 -8 1005.1 1004.1
12 20.03 Ю 6 50 км 1/0
[Ac lent]
-2.1 -6.9 70 -9 -8 1004.1 1003.1
15 20.03 Ю 7-9
{11}
50 км 3/0
[Ac trans Ci fib]
-1.8 -6.8 69 -9 -9 1003.3 1002.4
18 20.03 Ю 8-11
{12}
50 км позёмок 3/0
[Ac lent Ci fib]
-2.5 -6.5 74 -10 -10 1002.8 1001.8 -1.7
21 20.03 Ю 7-8
{13}
50 км позёмок 5/0
[Ac lent]
-2.9 -6.4 77 -11 -11 1002.4 1001.4
00 21.03 Ю 6 50 км {метель} 8/0
[Ac cast]
-2.4 -4.5 85 -10 -10 1001.6 1000.6
03 21.03 ЮЗ 4 4000 м слаб. ливневой снег 10/10 300 м
[Cb cap]
-1.8 -2.5 95 -8 -8 1001.0 1000.0 -4.2 0.4
06 21.03 ЮЗ 5 50 км {ливн. осадки} 10/8 300 м
[Sc Ac trans Cs]
-1.3 -2.7 90 -8 -8 1000.3 999.3 -4.2 0.7 10
09 21.03 ЮЗ 9-11
{11}
50 км позёмок 3/0
[Ac lent Cs]
-1.0 -3.8 81 -9 -9 1000.2 999.3
12 21.03 ЮЗ 8-11
{11}
50 км {метель} 1/0
[Ac lent]
-0.8 -4.5 76 -8 -8 999.2 998.3
15 21.03 ЮЗ 5-6
{11}
50 км 1/0
[Ac lent]
-1.2 -4.9 76 -7 -7 997.9 997.0 0.3
18 21.03 ЮЗ 8-10
{10}
50 км 3/1 300 м
[Sc Ac lent]
-1.3 -4.1 81 -9 -9 997.3 996.3 -0.5
21 21.03 ЮЗ 8-9
{10}
{морось} н/о -1.7 -4.7 80 -10 -10 998.8 997.8
00 22.03 З 7-9
{12}
н/о -1.8 -4.6 81 -9 -9 1000.8 999.9 181
03 22.03 СЗ 5-7
{12}
50 км 8/3 300 м
[Sc Ac As Ci fib]
+1.1 -1.8 81 -5 -5 1004.4 1003.4 -2.1
06 22.03 З 8-10
{14}
50 км 6/3 300 м
[Sc Ac trans Ci fib]
+0.4 -3.9 73 -7 -7 1008.1 1007.1 -2.1 13
09 22.03 ЮЗ 8-10
{12}
50 км 1/0
[Ac lent]
+0.6 -4.4 69 -6 -6 1010.6 1009.6
12 22.03 ЮЗ 11-14
{17}
50 км позёмок 1/0
[Ci fib]
+1.4 -5.3 61 -6 -6 1010.6 1009.6
15 22.03 ЮЗ 9-12
{15}
50 км позёмок 1/0
[Ci fib]
+1.3 -4.9 63 -6 -6 1010.4 1009.4
18 22.03 ЮЗ 10-14
{15}
50 км позёмок 1/0
[Ac lent]
+0.7 -5.3 64 -7 -7 1009.1 1008.2 +1.5
21 22.03 Ю 10-14
{15}
50 км позёмок 10/0
[Ac lent Ci fib]
-0.4 -6.0 66 -8 -8 1006.0 1005.1
00 23.03 Ю 12-15
{17}
50 км позёмок 10/0
[Ac lent Ci fib]
+0.1 -6.5 61 -8 -8 1001.7 1000.7
03 23.03 Ю 13-18
{19}
50 км сильный позёмок 10/10 300 м
[Cb cap]
-1.0 -4.4 78 -10 -10 995.8 994.8 -1.0
06 23.03 Ю 13-18
{18}
1000 м ливневой снег {метель} 10/10 300 м
[Cb cap]
-1.1 -2.1 93 -11 -11 991.4 990.4 -1.6 0.2 14
09 23.03 ЮЗ 11-13
{18}
4000 м слаб. ливневой снег {метель} 9/9 300 м
[Cb cap Ac trans]
+0.2 -1.7 87 -8 -8 988.2 987.3
12 23.03 ЮЗ 10-12
{14}
4000 м слаб. ливневой снег {метель} 9/9 300 м
[Cb cap]
-0.1 -1.0 94 -9 -9 984.3 983.3
15 23.03 ЮЗ 9-11
{13}
50 км в посл. час ливневой снег 9/9 300 м
[Cb cap]
+0.2 -0.5 95 -8 -8 981.7 980.8 0.5
18 23.03 ЮЗ 7-10
{12}
50 км {ливн. осадки} 8/5 300 м
[Cb cap Ac trans]
+1.6 -0.8 84 -5 -5 980.6 979.7 +1.8 0.3
21 23.03 ЮЗ 8-10
{11}
50 км 5/3 600 м
[Sc Ac trans]
+1.3 -1.2 83 -6 -6 979.0 978.1
00 24.03 ЮЗ 6-7
{10}
50 км 6/3 600 м
[Sc Ac trans]
+0.7 -2.5 79 -6 -6 978.6 977.7
03 24.03 ЮЗ 9-10
{10}
50 км 3/1 600 м
[Sc Ac trans]
-0.9 -3.4 83 -9 -9 978.8 977.8 -1.2
06 24.03 ЮЗ 7-8
{10}
50 км 3/1 300 м
[Sc Ci fib]
-1.4 -4.1 82 -9 -9 979.5 978.5 -1.8 12
09 24.03 З 5 50 км 3/1 300 м
[Sc Ac lent]
+0.3 -4.0 73 -5 -4 981.6 980.7
12 24.03 З 6 50 км 9/1 300 м
[Sc Ac trans Ci sp]
+0.3 -2.7 80 -6 -6 983.6 982.7
15 24.03 З 5 50 км 6/5 300 м
[Sc Ac trans]
+0.7 -1.9 83 -5 -5 985.8 984.9
18 24.03 З 5 50 км 6/4 300 м
[Sc Ac trans]
+0.9 -1.0 87 -5 -5 988.3 987.3 +1.7
21 24.03 З 6-9
{10}
4000 м слаб. ливневой снег 10/10 300 м
[Cb cap]
+1.3 -1.3 83 -5 -5 990.4 989.4

 

Местоположение метеостанции Вайда-Губа (Мурманская область, Россия): широта 69.93 долгота 31.98 высота над уровнем моря 8 м.

В архиве по умолчанию представлена погода в Вайда-Губе за последнюю неделю. Архивные данные за месяц целиком и за предыдущие месяцы, начиная с января 2011 года, Вы можете получить, выбрав интересующий диапазон дат из раскрывающегося списка и нажав кнопку "Ввод!".


*Определитесь, кто Вы:
робот инопланетянин человек

Внимание! Время в таблицах - всемирное. Для получения местного времени необходимо прибавить поправку, которая равна 3 ч.

Смотрите также архив погоды в соседних городах и на ближайших метеорологических станциях:

Погода в Порту Лиинахамари (Мурманская область, Россия) (41 км)
Погода в Цып-Наволоке (Мурманская область, Россия) (48 км)
Погода в Вардё аэропорту (Норвегия) (59 км)
Погода в Вардё (Норвегия) (59 км)
Погода в Ура-Губе (Мурманская область, Россия) (79 км)
Погода в Киркенес аэропорту (Норвегия) (83 км)
Погода в Вадсо аэропорту (Норвегия) (83 км)
Погода в Перевале (Мурманская область, Россия) (84 км)
Погода в Никеле (Мурманская область, Россия) (90 км)
Погода в Пасвике (Норвегия) (92 км)

Пояснения к столбцам:

Ветер - указаны скорость ветра в м/с - средняя за 10 мин, порывы в срок и между сроками (в фигурных скобках) и направление, откуда дует ветер: С - северный, СВ - северо-восточный, В - восточный, ЮВ - юго-восточный, Ю - южный, ЮЗ - юго-западный, З - западный, СЗ - северо-западный.
Видимость - горизонтальная дальность видимости в метрах или километрах. При видимости от 1 до 10 км при отсутствии осадков обычно наблюдается дымка, при ухудшении видимости до 1 км и менее - туман. В сухую погоду видимость может ухудшаться дымом, пылью или мглою.
Явления - указаны атмосферные явления, наблюдавшиеся в срок или в последний час перед сроком; фигурными скобками обозначены явления, наблюдавшиеся между сроками (за 1-3 часа до срока); квадратными скобками обозначены град или гололедные отложения с указанием их диаметра в мм.
Облачность - указаны через наклонную черту общая и нижняя облачность в баллах и высота нижней границы облаков в метрах; квадратными скобками обозначены формы облаков: Ci - перистые, Cs - перисто-слоистые, Cc - перисто-кучевые, Ac - высококучевые, As - высокослоистые, Sc - слоисто-кучевые, Ns - слоисто-дождевые, Cu - кучевые, Cb - кучево-дождевые. Подробнее классификацию облаков см. в Атласе облаков (PDF).
T - Температура воздуха - температура, измеренная на высоте 2 м над землей.
Td - Температура точки росы - температура, при понижении до которой содержащийся в воздухе водяной пар достигнет насыщения.
f - Относительная влажность воздуха - влажноcть воздуха, измеренная на высоте 2 м над землей.
Te - Эффективная температура - температура, которую ощущает одетый по сезону человек в тени. Характеристика душности погоды. При расчете учитывается влияние влажности воздуха и скорости ветра на теплоощущения человека.
Tes - Эффективная температура на солнце - температура, которую ощущает человек, с поправкой на солнечный нагрев. Характеристика знойности погоды. Зависит от высоты солнца над горизонтом, облачности и скорости ветра. Ночью, в пасмурную погоду, а также при ветре 12 м/с и более поправка равна нулю.
P - Атмосферное давление - приведенное к уровню моря атмосферное давление.
Po - Атмосферное давление - измеренное на уровне метеостанции атмосферное давление.
Tmin - Минимальная температура - минимум температуры воздуха на высоте 2 м над землей.
Tmax - Максимальная температура - максимум температуры воздуха на высоте 2 м над землей.
R - Количество осадков - Количество выпавших осадков за период времени, мм. При наведении курсора мыши на число - период времени, за который выпало указанное количество осадков.
R24 - Количество осадков - Количество выпавших осадков за 24 часа, мм.
S - Снежный покров - Высота снежного покрова, см. При наведении курсора мыши на число - состояние снежного покрова и степень покрытия местности в баллах.